[[{"header":{"parameterUnit":"m.s-1","parameterCategory":1,"la1":30.2992,"la2":30.254,"lo1":-89.0895,"lo2":-89.0443,"dy":0.0025,"dx":0.0025,"nx":19,"ny":19,"refTime":"2026-04-08T03:00:00:Z","depth":0,"parameterNumber":2,"parameterNumberName":"U-component_of_WINDS"},"data":[0,0,0,-5.5125,-5.5125,-5.5105,-5.5104,-5.5131,-5.5132,0,0,0,0,0,0,0,0,0,0,0,-5.5161,-5.5162,-5.5125,-5.5125,-5.5105,-5.5104,-5.5131,-5.5132,0,0,0,0,0,0,0,0,0,0,0,-5.516,-5.5162,-5.5163,-5.5125,-5.5105,-5.5104,-5.5131,-5.5128,0,0,0,0,0,0,0,0,0,0,-5.5139,-5.52,-5.5161,-5.5163,-5.5126,-5.5105,-5.5104,-5.5127,-5.5128,-5.5163,0,-5.5199,0,-5.5166,-5.5137,-5.5137,0,0,0,-5.5104,-5.52,-5.5167,-5.5163,-5.5126,-5.5105,-5.5108,-5.5127,-5.5129,-5.5165,-5.5199,-5.5198,-5.5166,-5.5137,-5.5138,-5.5404,-5.5406,0,0,-5.5105,-5.5174,-5.5167,-5.517,-5.5173,-5.5109,-5.5108,-5.5127,-5.517,-5.5199,-5.5198,-5.5167,-5.5138,-5.5138,-5.5402,-5.5405,0,0,0,-5.5123,-5.5176,-5.5141,-5.517,-5.5162,-5.5109,-5.5107,-5.5169,-5.5152,-5.5198,-5.5167,-5.5138,-5.5139,-5.5399,-5.5403,-5.5582,0,0,0,-5.5122,-5.5185,-5.5143,-5.5185,-5.5163,-5.5165,-5.515,-5.5151,-5.515,-5.5167,-5.5138,-5.514,-5.5397,-5.5401,-5.5571,-5.5655,0,0,0,-5.5152,-5.5188,-5.5196,-5.5188,-5.5182,-5.5163,-5.5146,-5.5149,-5.5133,-5.5137,-5.514,-5.5395,-5.54,-5.5562,-5.564,-5.5747,0,0,0,-5.5204,-5.5354,-5.52,-5.5356,-5.5182,-5.5273,-5.5145,-5.5209,-5.5234,-5.5139,-5.5397,-5.5403,-5.5559,-5.563,-5.5738,-5.5851,-5.5903,0,0,-5.5432,-5.5384,-5.5471,-5.5332,-5.5467,-5.527,-5.5433,-5.5391,-5.5329,-5.5383,-5.5389,-5.5575,-5.5639,-5.5745,-5.6174,-5.6217,0,0,0,-5.5566,-5.563,-5.5651,-5.5677,-5.5648,-5.5632,-5.5557,-5.5542,-5.5585,-5.537,-5.5639,-5.5675,-5.5735,-5.5786,-5.5822,-5.587,-5.5429,-5.5428,-5.5427,-5.5988,-5.5901,-5.6039,-5.595,-5.5978,-5.5901,-5.5917,-5.5884,-5.5787,-5.5853,-5.5869,-5.614,-5.6202,-5.6228,-5.628,-5.592,-5.5921,-5.5921,-5.5922,-5.6315,-5.6392,-5.6261,-5.6349,-5.6257,-5.6331,-5.6264,-5.6194,-5.6251,-5.6119,-5.6168,-5.6033,-5.6278,-5.6318,-5.5934,-5.5932,-5.593,-5.5929,-5.5928,-5.6583,-5.6604,-5.6583,-5.6614,-5.6649,-5.6554,-5.6615,-5.6529,-5.6449,-5.6496,-5.6506,-5.6502,-5.649,-5.6507,-5.6508,-5.6508,-5.6509,-5.651,-5.651,-5.6869,-5.6839,-5.69,-5.6884,-5.6891,-5.689,-5.6817,-5.6822,-5.6807,-5.674,-5.6739,-5.6639,-5.6317,-5.6239,-5.6525,-5.6522,-5.652,-5.6519,-5.6518,-5.7236,-5.7139,-5.7234,-5.7242,-5.7217,-5.726,-5.7149,-5.7168,-5.716,-5.7195,-5.7084,-5.6859,-5.6805,-5.6775,-5.671,-5.71,-5.71,-5.71,-5.71,-5.7463,-5.7426,-5.7505,-5.7523,-5.7531,-5.7441,-5.7555,-5.7502,-5.7431,-5.7422,-5.7353,-5.7259,-5.7232,-5.7193,-5.7155,-5.7093,-5.7572,-5.7572,-5.7572,-5.7684,-5.7645,-5.7757,-5.7685,-5.7661,-5.7643,-5.7748,-5.7777,-5.7677,-5.759,-5.7413,-5.7394,-5.7241,-5.7195,-5.7105,-5.7047,-5.6931,0,0]},{"header":{"parameterUnit":"m.s-1","parameterCategory":1,"la1":30.2992,"la2":30.254,"lo1":-89.0895,"lo2":-89.0443,"dy":0.0025,"dx":0.0025,"nx":19,"ny":19,"refTime":"2026-04-08T03:00:00:Z","depth":0,"parameterNumber":3,"parameterNumberName":"V-component_of_WINDS"},"data":[0,0,0,0.3503,0.3502,0.3453,0.3453,0.3385,0.3384,0,0,0,0,0,0,0,0,0,0,0,0.3515,0.3514,0.3503,0.3502,0.3453,0.3453,0.3385,0.3384,0,0,0,0,0,0,0,0,0,0,0,0.3515,0.3514,0.3513,0.3502,0.3453,0.3453,0.3385,0.3424,0,0,0,0,0,0,0,0,0,0,0.3473,0.348,0.3514,0.3513,0.3502,0.3453,0.3453,0.3426,0.3422,0.3405,0,0.3389,0,0.3386,0.3379,0.3379,0,0,0,0.3505,0.3483,0.3473,0.3513,0.3501,0.3453,0.3476,0.3424,0.3419,0.3399,0.3388,0.3386,0.3385,0.3379,0.3379,0.3275,0.3274,0,0,0.3507,0.3504,0.3477,0.347,0.3477,0.3477,0.3474,0.3421,0.3408,0.3388,0.3384,0.3383,0.3378,0.3378,0.3275,0.3275,0,0,0,0.3513,0.3505,0.3497,0.3472,0.3464,0.3476,0.3472,0.3411,0.3408,0.3384,0.3383,0.3378,0.3377,0.3276,0.3275,0.324,0,0,0,0.3515,0.3509,0.3498,0.3495,0.3465,0.3437,0.3463,0.3412,0.3406,0.3383,0.3378,0.3376,0.3277,0.3276,0.3243,0.3223,0,0,0,0.3519,0.351,0.3501,0.3495,0.3474,0.3437,0.3432,0.3411,0.3405,0.3379,0.3376,0.3277,0.3276,0.3245,0.3227,0.3194,0,0,0,0.3522,0.3471,0.3501,0.3444,0.3474,0.3417,0.3432,0.339,0.3364,0.3378,0.3277,0.3275,0.3246,0.3229,0.3196,0.3164,0.315,0,0,0.3455,0.3463,0.343,0.3455,0.3392,0.3425,0.3357,0.3336,0.3338,0.3296,0.3293,0.3242,0.3227,0.3194,0.3082,0.3071,0,0,0,0.3408,0.3384,0.3368,0.3343,0.3327,0.3311,0.3302,0.3295,0.326,0.3315,0.3223,0.3214,0.3195,0.3179,0.317,0.3154,0.3269,0.3269,0.3269,0.3306,0.3311,0.3258,0.3257,0.3234,0.3226,0.3207,0.3196,0.3208,0.3186,0.3172,0.3103,0.3085,0.3078,0.3061,0.3158,0.3158,0.3158,0.3158,0.3207,0.3173,0.3194,0.3148,0.3155,0.3117,0.3109,0.3119,0.3084,0.3114,0.3097,0.3126,0.3067,0.3051,0.3155,0.3156,0.3156,0.3156,0.3156,0.3138,0.3123,0.3117,0.3083,0.3056,0.306,0.3026,0.3034,0.3041,0.3025,0.3011,0.3012,0.3011,0.3019,0.3019,0.3018,0.3018,0.3018,0.3018,0.3068,0.3062,0.3033,0.3014,0.3,0.2983,0.2977,0.2964,0.2951,0.2959,0.2959,0.2972,0.3061,0.3081,0.3014,0.3015,0.3015,0.3016,0.3016,0.296,0.2987,0.2941,0.2927,0.2907,0.288,0.2893,0.2865,0.2856,0.2839,0.2858,0.2923,0.293,0.2938,0.2954,0.2858,0.2858,0.2858,0.2858,0.2899,0.2906,0.2862,0.2839,0.2819,0.2826,0.2775,0.2772,0.2773,0.2767,0.2784,0.2808,0.2815,0.2818,0.2828,0.2843,0.2721,0.2721,0.2721,0.2833,0.2838,0.2791,0.2793,0.2779,0.2767,0.2719,0.2693,0.27,0.2715,0.2763,0.2769,0.2808,0.2821,0.2833,0.2848,0.2877,0,0]}]]